Wetbulb
59.46 59.69 60.01 60.32 60.61 61.11 61.50 61.69 61.74 61.91 61.96 61.83 61.65 62.19 62.04 62.42 60.40 56.76 53.46 57.41 59.08 62.46 60.93 56.68 55.73 56.13 57.34 55.52 55.96 55.47 48.86 47.60 48.08 47.21 48.86 50.12 48.80 50.49 50.37 50.63 49.95 51.32 51.46 50.56 52.82
58.59 58.84 59.24 59.70 60.04 60.55 60.97 61.05 61.14 61.55 61.75 61.59 61.21 61.81 61.67 61.60 58.31 54.60 60.25 61.25 62.23 62.42 55.88 54.72 53.92 54.96 54.45 53.87 53.73 51.67 49.44 48.96 50.49 50.35 49.12 50.12 49.52 50.99 48.08 48.80 49.43 50.02 51.77 48.97 50.51
57.41 57.72 58.27 58.73 59.37 60.08 60.44 60.67 60.89 61.02 61.43 61.44 61.13 61.67 61.10 60.58 54.54 54.62 61.62 62.30 61.80 60.51 56.13 55.23 55.01 54.75 52.65 53.62 53.04 52.00 48.75 50.50 50.78 50.51 50.17 49.58 49.38 50.88 48.61 48.16 51.12 50.74 51.72 49.25 49.25
56.21 56.24 56.71 57.54 58.31 59.27 59.88 60.06 60.68 60.76 61.01 61.07 60.93 61.42 60.55 58.81 47.99 55.11 61.04 61.15 61.19 58.46 55.00 53.67 53.68 51.81 51.76 50.75 52.32 48.65 51.63 50.54 50.45 50.02 49.09 48.48 50.51 48.61 49.10 50.66 51.78 52.69 53.70 51.01 48.49
55.64 55.41 55.69 56.20 57.22 58.24 58.98 59.36 60.01 60.47 60.51 60.68 60.73 61.18 59.54 53.30 53.06 56.44 57.83 58.31 56.26 54.52 53.39 53.17 52.83 53.18 50.30 51.15 50.43 49.06 50.47 50.12 50.48 49.72 49.26 50.13 47.98 48.81 49.81 52.52 53.18 52.16 49.57 50.61 49.12
56.19 55.43 55.00 55.43 56.23 57.17 57.84 58.46 59.11 59.92 60.14 60.23 60.43 60.08 56.02 48.44 55.75 55.82 54.02 53.93 53.80 53.77 52.80 53.14 52.77 53.33 51.04 49.66 49.70 50.27 49.51 49.78 50.56 49.88 49.63 47.18 48.64 47.83 50.71 52.18 52.04 51.95 49.84 49.77 49.87
56.32 55.67 55.39 55.34 55.74 56.16 56.83 57.69 58.54 59.38 59.53 59.66 60.49 59.29 53.39 51.07 55.94 55.19 53.81 53.13 53.05 53.22 52.16 52.81 53.65 52.23 52.40 49.95 50.41 48.72 46.30 49.22 49.77 49.23 47.68 48.06 45.25 46.48 50.75 50.12 49.41 49.62 49.89 50.12 50.16
56.10 55.32 55.39 55.62 55.50 55.68 56.37 57.62 58.35 58.71 59.12 60.00 60.45 57.37 50.70 55.61 57.42 53.25 54.04 52.35 53.04 53.19 53.13 52.76 53.00 52.35 50.66 50.00 48.61 46.40 47.22 43.92 49.11 48.38 47.76 47.01 42.93 48.54 51.25 49.42 48.13 49.77 50.59 49.52 49.80
55.55 54.95 55.22 55.58 55.58 55.81 56.55 57.24 57.73 58.32 59.10 59.68 58.03 55.32 49.20 54.73 53.38 54.48 54.01 51.66 52.12 52.46 52.30 51.69 52.77 50.95 48.97 46.79 45.53 47.18 42.86 44.85 46.80 48.25 47.09 45.68 44.25 48.53 50.32 48.98 48.11 48.98 49.73 50.34 49.72
54.79 54.62 55.19 55.45 55.51 55.74 56.36 57.63 57.94 57.26 58.45 57.22 54.71 51.46 51.62 50.14 53.34 53.05 52.22 52.79 50.77 51.36 50.31 50.28 50.10 47.44 47.58 45.82 40.24 43.13 43.11 44.75 44.44 46.99 45.53 44.64 43.70 47.30 49.07 48.70 48.56 48.88 49.47 49.83 50.55
54.93 54.46 54.69 55.27 55.60 56.03 56.03 55.15 52.06 51.33 52.62 50.65 51.21 51.00 49.06 52.81 53.89 51.70 51.39 50.28 50.59 49.04 45.94 48.70 45.20 43.31 46.10 47.56 46.92 45.57 43.80 42.76 45.19 47.57 44.53 44.11 44.36 46.29 48.53 48.59 48.41 48.70 49.21 49.39 50.09
55.62 55.28 54.86 55.60 55.88 56.04 55.02 49.75 51.74 50.14 44.67 49.81 50.23 49.63 51.10 53.28 48.84 50.65 51.09 47.68 47.14 44.57 47.63 44.95 41.76 46.60 47.65 46.16 45.43 45.00 42.60 42.41 45.76 47.28 42.30 43.11 42.59 45.82 47.35 47.69 48.23 48.00 48.34 49.03 50.22
55.87 55.64 55.52 55.74 55.81 55.05 51.73 50.72 53.41 53.04 45.81 46.58 49.69 48.38 49.34 49.97 47.45 48.92 49.18 48.81 46.41 44.78 45.26 43.03 45.29 45.98 44.95 44.90 42.76 43.02 41.73 42.70 42.93 45.99 43.26 40.86 40.17 43.23 46.25 46.62 47.14 47.20 47.93 48.66 49.19
56.20 55.77 55.55 55.20 53.08 53.87 51.02 51.40 53.63 52.30 40.73 42.96 44.13 47.66 48.32 48.79 43.96 47.48 49.60 48.03 45.68 43.22 44.83 44.57 47.09 45.07 43.59 42.05 43.79 39.92 45.42 44.54 42.66 40.96 37.63 41.62 34.43 42.19 44.33 45.05 45.54 45.48 46.94 48.61 47.94
55.99 55.88 55.74 54.24 53.05 51.30 50.02 52.28 53.42 49.27 32.02 43.43 42.65 48.93 48.24 45.34 44.75 43.22 46.30 44.88 42.95 43.35 43.66 42.68 43.97 41.31 41.15 42.60 45.12 42.19 41.83 41.84 41.87 39.75 39.69 39.35 36.54 40.04 39.84 40.50 42.44 45.39 47.54 49.75 49.07
55.91 55.70 54.57 53.73 54.19 53.45 52.41 52.52 50.28 39.28 31.55 40.11 43.81 42.62 42.86 43.82 42.65 42.67 43.61 45.66 45.01 43.18 43.19 42.68 43.37 43.51 44.14 40.57 42.17 41.57 40.16 39.22 38.74 38.30 32.75 38.97 38.44 38.51 41.39 41.65 43.66 45.99 47.37 49.16 47.88
55.89 55.53 54.13 55.18 51.86 52.84 52.11 49.81 38.32 33.11 41.28 40.75 41.58 42.48 42.47 42.43 41.86 40.68 39.30 38.48 39.27 36.56 38.21 42.57 41.86 43.34 42.30 40.27 40.19 40.15 39.56 35.24 34.62 33.00 31.87 41.43 37.16 40.20 44.37 44.20 44.79 44.96 46.64 48.22 46.99
55.99 55.41 53.98 55.04 55.02 53.91 50.14 42.89 32.26 39.07 41.30 42.66 41.72 42.13 40.46 43.32 42.05 40.97 40.29 38.98 41.30 41.42 39.17 38.60 37.04 41.04 41.61 42.16 43.00 38.17 40.57 36.14 30.27 30.97 34.46 34.89 33.42 39.41 45.43 46.05 45.73 45.90 46.32 46.46 46.01
56.12 54.67 52.80 53.41 52.26 53.26 44.03 34.55 38.19 41.40 43.38 42.99 42.40 38.75 39.84 41.43 41.23 41.63 40.63 41.57 43.97 42.13 37.90 37.77 37.80 39.07 41.17 41.26 43.58 38.98 34.45 41.67 36.55 34.32 31.51 36.33 40.59 44.97 44.54 43.70 43.93 43.47 44.33 44.79 44.46
54.65 52.90 51.85 53.88 50.70 48.61 38.51 36.19 43.79 45.73 44.55 42.56 38.86 41.41 38.24 40.73 38.72 39.59 40.81 44.14 42.66 44.58 44.50 42.03 36.16 41.93 35.41 38.09 38.77 38.34 40.71 34.65 35.71 29.30 28.01 34.16 36.79 37.88 40.48 41.31 42.66 42.44 43.49 45.65 45.70
53.41 47.51 52.63 51.87 50.42 43.57 33.14 35.56 43.66 47.35 45.21 39.82 39.24 39.52 40.76 40.53 41.71 40.08 40.20 43.85 45.03 43.99 44.29 42.40 39.60 37.84 35.94 34.80 37.80 34.36 34.76 35.08 35.37 36.53 30.72 29.32 34.71 41.61 42.46 43.08 43.71 44.48 45.16 46.58 46.93
51.22 43.44 50.29 50.37 40.42 39.13 35.05 39.36 42.98 44.07 44.52 40.18 40.53 39.66 39.86 40.97 39.96 39.71 39.79 42.57 45.16 44.05 38.92 41.80 38.06 34.07 37.53 42.30 40.28 40.12 38.78 38.41 32.67 31.40 34.25 33.64 33.67 43.58 43.55 43.85 43.74 44.08 45.33 46.81 47.95
47.46 45.90 49.24 49.78 37.47 35.37 39.34 40.65 42.27 42.73 42.71 38.84 37.81 39.68 40.07 36.93 33.67 38.75 40.69 44.62 45.07 42.36 39.30 40.00 34.39 30.67 33.27 36.40 34.67 34.92 38.05 38.55 39.16 36.68 32.10 30.12 33.19 43.65 44.32 44.62 44.99 43.56 45.11 45.44 44.67
47.89 40.27 41.62 43.13 44.34 41.23 36.47 38.14 38.77 43.97 42.07 42.08 37.97 39.41 37.46 35.14 37.71 35.05 36.26 41.72 40.18 40.49 41.16 41.26 36.68 33.53 30.52 35.07 38.63 35.04 35.72 36.77 36.10 31.78 32.03 32.81 35.54 40.23 42.17 42.84 44.25 45.04 46.02 46.05 45.49
46.01 43.11 41.38 34.70 37.59 39.81 40.61 39.17 38.21 37.48 42.23 42.27 38.62 37.99 36.71 34.49 35.96 35.05 37.33 38.50 39.70 39.34 39.93 37.65 31.15 34.14 36.20 37.92 38.71 36.72 36.70 36.58 34.05 34.64 31.28 34.46 35.69 39.61 41.94 42.80 44.25 45.62 45.36 44.64 44.90
39.77 42.26 41.12 40.08 42.01 37.80 38.04 37.78 37.71 39.70 40.62 39.41 38.26 40.25 39.37 35.78 37.26 37.45 39.12 38.23 36.96 38.19 36.62 38.07 31.63 33.37 31.18 34.36 34.30 32.30 35.20 36.35 36.18 36.66 36.76 36.99 35.82 42.48 43.49 44.26 43.59 43.96 44.22 43.43 43.70
42.74 41.37 35.50 35.96 37.55 36.81 37.39 37.82 38.33 41.48 42.13 43.52 43.06 40.90 38.63 39.21 41.88 42.85 43.68 43.01 41.75 36.99 34.46 33.51 32.70 31.32 27.92 33.65 32.42 28.38 32.81 34.67 35.97 38.63 38.30 33.78 38.83 43.24 42.88 43.22 43.59 44.31 44.83 43.65 43.97
MSLP
1019.28 1019.03 1018.70 1018.34 1018.02 1017.63 1017.25 1016.84 1016.52 1016.30 1016.03 1015.82 1015.65 1015.39 1015.13 1014.95 1014.63 1014.43 1013.30 1013.04 1013.17 1013.57 1013.69 1013.27 1013.09 1012.81 1012.67 1012.17 1012.21 1011.85 1010.34 1008.65 1008.37 1008.68 1008.54 1009.87 1010.19 1010.87 1011.34 1011.07 1011.79 1012.21 1012.36 1013.38 1013.90
1019.50 1019.24 1018.99 1018.65 1018.28 1017.91 1017.51 1017.09 1016.63 1016.24 1016.02 1015.75 1015.51 1015.32 1015.16 1014.98 1014.36 1013.37 1012.63 1012.83 1013.11 1013.38 1013.14 1012.65 1012.18 1012.42 1011.85 1011.84 1011.79 1011.26 1009.99 1008.66 1008.89 1008.97 1009.18 1009.67 1010.28 1010.24 1011.24 1010.94 1010.93 1011.57 1012.39 1013.94 1014.46
1019.85 1019.48 1019.16 1018.85 1018.51 1018.13 1017.69 1017.25 1016.83 1016.41 1016.00 1015.69 1015.44 1015.19 1015.03 1014.80 1014.01 1012.10 1012.55 1012.86 1013.03 1013.15 1012.83 1012.54 1012.19 1011.92 1011.45 1011.47 1011.13 1010.70 1009.73 1009.41 1009.26 1009.65 1009.99 1009.95 1010.08 1010.29 1010.37 1009.79 1009.61 1010.03 1010.96 1012.95 1013.99
1020.03 1019.79 1019.43 1019.06 1018.66 1018.23 1017.87 1017.41 1016.94 1016.47 1016.02 1015.74 1015.45 1015.10 1014.90 1014.34 1013.41 1012.55 1012.97 1013.17 1013.24 1012.98 1012.82 1012.47 1012.09 1011.61 1011.09 1010.84 1010.84 1010.73 1009.74 1009.80 1009.75 1010.36 1010.65 1010.38 1010.08 1009.79 1009.69 1008.61 1009.40 1009.72 1009.97 1011.49 1012.90
1020.06 1019.92 1019.58 1019.18 1018.74 1018.30 1017.84 1017.45 1016.99 1016.52 1016.11 1015.70 1015.41 1015.19 1014.89 1013.87 1012.52 1012.82 1013.16 1013.40 1013.26 1013.21 1012.72 1012.31 1011.86 1011.37 1010.87 1010.60 1010.98 1010.77 1009.89 1010.01 1010.10 1010.58 1010.75 1010.68 1010.28 1009.83 1008.66 1008.55 1009.02 1009.63 1010.58 1010.92 1011.81
1020.10 1019.84 1019.61 1019.21 1018.77 1018.21 1017.67 1017.26 1016.85 1016.36 1015.96 1015.58 1015.33 1015.16 1014.70 1013.39 1012.56 1012.66 1012.95 1013.24 1013.04 1012.92 1012.62 1012.40 1011.79 1011.73 1011.29 1010.99 1011.03 1010.51 1010.37 1009.95 1009.82 1010.12 1010.38 1010.52 1009.93 1009.96 1007.94 1008.16 1008.24 1008.73 1009.60 1010.25 1010.63
1020.01 1019.82 1019.53 1019.17 1018.70 1018.15 1017.51 1016.92 1016.51 1016.09 1015.61 1015.20 1015.08 1014.63 1013.82 1012.54 1012.49 1012.68 1012.90 1013.05 1013.18 1012.89 1012.54 1012.70 1012.45 1012.13 1011.61 1011.04 1011.12 1010.87 1010.33 1009.23 1008.93 1009.58 1010.06 1010.31 1009.57 1008.19 1007.58 1008.05 1007.99 1008.29 1008.75 1009.15 1009.53
1019.90 1019.68 1019.50 1019.05 1018.58 1018.05 1017.33 1016.59 1016.05 1015.61 1015.13 1014.97 1014.84 1014.18 1012.93 1012.76 1012.57 1012.90 1012.96 1013.15 1013.21 1013.16 1013.03 1013.09 1012.82 1012.30 1011.95 1011.81 1011.14 1010.57 1009.91 1008.52 1007.45 1008.98 1009.74 1010.10 1007.40 1006.57 1006.31 1007.30 1007.39 1007.37 1007.45 1008.00 1008.45
1019.96 1019.66 1019.41 1018.99 1018.40 1017.82 1017.10 1016.14 1015.48 1015.21 1014.84 1014.86 1014.73 1013.74 1012.48 1013.07 1012.83 1012.68 1012.71 1012.70 1013.15 1013.31 1013.41 1013.37 1012.95 1012.16 1012.16 1011.21 1010.02 1009.10 1008.07 1007.33 1007.13 1008.33 1009.02 1009.33 1006.93 1005.91 1006.40 1006.63 1006.23 1006.18 1006.13 1006.30 1006.95
1019.85 1019.69 1019.34 1018.91 1018.31 1017.52 1016.60 1015.29 1014.90 1014.95 1014.67 1014.36 1013.89 1013.80 1012.34 1012.07 1012.44 1012.68 1013.00 1012.95 1012.88 1013.13 1013.04 1012.92 1012.33 1011.57 1010.78 1010.06 1008.37 1007.14 1006.87 1006.36 1006.42 1007.40 1008.41 1008.11 1006.89 1006.04 1005.79 1005.79 1005.12 1004.83 1004.72 1004.90 1004.99
1019.67 1019.55 1019.28 1018.92 1018.31 1017.67 1016.35 1014.61 1014.94 1014.71 1013.92 1012.53 1012.18 1011.48 1011.61 1012.44 1012.69 1012.60 1012.71 1012.88 1012.76 1012.65 1012.00 1012.01 1011.36 1009.42 1008.66 1008.26 1007.95 1007.66 1007.20 1006.50 1005.91 1006.70 1007.74 1007.23 1006.57 1005.83 1005.22 1004.73 1004.24 1003.69 1003.29 1003.38 1003.76
1019.20 1019.24 1019.08 1018.78 1018.24 1017.72 1016.99 1015.50 1016.17 1016.91 1014.26 1012.06 1011.95 1011.78 1011.75 1011.98 1012.29 1012.39 1012.69 1012.43 1012.14 1011.31 1010.99 1011.59 1009.95 1008.34 1008.51 1008.56 1008.23 1007.63 1007.54 1006.30 1006.14 1006.40 1008.14 1007.18 1006.01 1005.55 1004.96 1004.00 1003.55 1003.08 1002.33 1002.62 1002.96
1018.86 1018.81 1018.78 1018.60 1018.07 1017.50 1016.98 1016.68 1016.88 1016.55 1014.90 1011.86 1011.38 1011.26 1011.40 1011.84 1011.26 1011.22 1012.02 1011.47 1010.96 1010.56 1010.07 1009.43 1007.96 1008.74 1008.82 1008.60 1008.56 1008.01 1007.71 1006.81 1006.74 1006.89 1007.75 1007.40 1005.08 1004.49 1003.57 1003.57 1003.10 1002.12 1001.77 1002.25 1002.79
1018.53 1018.51 1018.40 1018.33 1018.22 1017.79 1017.17 1017.57 1017.15 1016.63 1013.98 1010.97 1011.12 1011.20 1011.77 1011.75 1011.59 1011.54 1011.44 1011.24 1010.78 1009.79 1009.55 1008.68 1008.36 1008.48 1008.81 1008.63 1008.70 1008.24 1007.61 1007.58 1007.71 1008.13 1006.73 1007.19 1002.82 1002.93 1002.70 1002.29 1002.39 1001.41 1000.72 1001.26 1002.24
1018.29 1018.46 1018.31 1018.21 1018.17 1017.83 1018.58 1018.24 1017.52 1016.57 1012.53 1010.11 1010.87 1011.67 1011.66 1011.77 1011.34 1011.85 1012.13 1011.70 1010.13 1009.56 1009.95 1007.41 1008.39 1008.99 1008.89 1008.44 1008.70 1008.69 1008.80 1008.56 1008.41 1008.04 1007.03 1006.44 1004.45 1001.40 1001.87 1001.46 1001.26 1000.61 1000.00 1000.41 1001.58
1017.82 1018.13 1018.59 1018.17 1017.91 1017.53 1018.16 1018.33 1017.98 1015.47 1010.33 1009.48 1010.19 1010.61 1011.03 1011.16 1011.43 1012.07 1011.97 1011.64 1011.09 1009.85 1009.28 1008.44 1009.32 1009.35 1008.85 1009.52 1009.60 1009.64 1009.57 1009.36 1009.12 1008.43 1005.44 1004.55 1003.76 1000.22 1000.02 1000.23 1000.13 999.92 999.84 1000.19 1001.37
1016.92 1017.33 1018.17 1017.48 1017.32 1017.94 1017.81 1017.71 1016.36 1011.99 1009.03 1008.10 1008.57 1009.57 1009.28 1009.68 1010.37 1010.71 1011.13 1010.60 1009.61 1009.49 1008.21 1007.26 1007.82 1008.59 1009.40 1009.85 1010.31 1010.03 1009.54 1008.32 1007.67 1007.39 1003.24 1002.86 1001.46 999.24 999.33 999.56 999.56 999.30 999.23 1000.17 1001.60
1016.06 1016.63 1016.83 1016.98 1017.42 1017.42 1017.84 1017.00 1013.31 1008.43 1008.06 1008.02 1008.30 1008.52 1008.43 1008.12 1008.58 1009.23 1009.17 1008.84 1008.38 1007.80 1007.01 1006.28 1006.29 1007.47 1008.11 1008.08 1007.70 1009.00 1008.55 1007.67 1006.39 1005.57 1002.26 1002.65 999.35 997.88 998.00 998.32 998.72 998.85 999.49 1000.44 1001.57
1015.06 1015.72 1015.86 1016.19 1017.04 1017.08 1017.34 1015.17 1007.38 1007.17 1006.88 1006.95 1007.73 1007.75 1006.90 1007.36 1007.94 1007.76 1007.36 1005.67 1005.48 1006.24 1006.25 1005.28 1005.18 1006.64 1007.26 1007.75 1007.78 1008.29 1008.44 1007.41 1006.95 1005.46 1004.48 999.66 997.70 996.80 997.65 997.96 998.15 999.15 999.92 1000.23 1001.26
1015.02 1014.76 1014.13 1015.09 1015.54 1016.85 1016.33 1012.49 1007.56 1006.80 1006.81 1006.78 1006.10 1006.17 1005.45 1005.57 1006.59 1006.63 1005.13 1003.58 1004.19 1004.66 1005.24 1003.92 1004.89 1005.35 1007.73 1008.33 1008.10 1007.95 1007.38 1007.43 1007.27 1005.84 1003.37 997.83 997.53 996.37 997.35 997.24 998.03 998.86 999.31 999.56 1000.64
1014.55 1014.02 1013.06 1014.39 1016.01 1015.98 1013.99 1011.23 1009.43 1008.14 1007.69 1007.08 1006.37 1005.77 1004.86 1004.52 1004.24 1004.30 1003.33 1002.99 1003.53 1004.16 1005.17 1005.04 1005.64 1005.29 1007.35 1006.58 1005.92 1007.61 1006.81 1006.57 1006.20 1004.51 1002.70 1000.50 995.43 995.65 996.09 996.93 997.55 998.30 998.71 998.97 999.46
1013.69 1013.72 1014.00 1014.17 1015.19 1014.85 1013.54 1011.09 1009.96 1008.55 1008.35 1008.09 1006.93 1006.40 1005.57 1005.11 1004.45 1003.39 1002.49 1002.75 1003.33 1004.33 1005.04 1005.36 1005.53 1005.62 1004.52 1003.86 1004.35 1004.60 1004.47 1004.82 1004.01 1002.78 1002.59 1000.95 994.49 994.72 995.80 996.85 997.02 997.56 998.12 998.38 998.76
1013.50 1013.36 1013.90 1013.35 1012.70 1012.82 1012.00 1010.67 1010.21 1008.55 1007.91 1008.36 1008.15 1007.47 1007.18 1006.97 1006.92 1004.85 1003.37 1003.29 1004.05 1004.88 1005.30 1005.94 1006.19 1006.25 1005.48 1005.09 1004.49 1004.06 1003.53 1003.53 1003.03 1002.53 1001.04 1000.67 995.80 996.73 995.24 996.19 996.18 996.67 997.25 997.95 998.34
1013.38 1013.16 1013.76 1013.07 1011.65 1011.17 1011.19 1009.85 1009.85 1008.99 1008.48 1007.91 1008.32 1009.59 1009.06 1008.62 1008.42 1007.12 1006.56 1005.60 1006.15 1006.53 1007.04 1007.07 1006.41 1006.03 1004.78 1003.32 1002.83 1002.71 1002.51 1003.11 1003.50 1001.97 999.79 999.02 997.50 995.94 995.93 996.47 994.96 995.12 995.75 996.35 996.93
1013.30 1011.33 1011.11 1011.64 1011.14 1010.60 1010.03 1009.68 1008.94 1008.48 1007.70 1007.46 1007.51 1007.29 1008.35 1007.92 1007.43 1007.27 1006.99 1006.10 1006.89 1007.91 1008.58 1009.33 1007.99 1007.42 1005.79 1004.90 1003.70 1003.09 1002.19 1002.65 1002.38 1001.51 1000.78 998.34 998.32 997.22 995.68 994.38 994.11 993.93 994.47 995.46 995.52
1013.90 1012.42 1011.66 1009.97 1009.18 1009.48 1009.39 1008.30 1007.77 1007.13 1007.31 1006.41 1005.99 1005.08 1005.60 1006.28 1005.96 1004.99 1004.86 1004.96 1006.15 1007.39 1008.43 1008.51 1007.61 1007.51 1005.96 1005.26 1004.55 1003.55 1002.85 1002.17 1000.72 1000.56 999.66 998.74 997.63 996.17 994.88 993.87 993.59 993.21 992.93 994.76 994.15
1013.86 1013.72 1013.45 1011.53 1009.87 1009.20 1007.57 1006.67 1006.26 1006.32 1005.31 1004.80 1004.60 1004.44 1004.26 1003.97 1003.41 1002.13 1003.19 1004.01 1005.07 1006.26 1006.76 1007.67 1007.33 1006.62 1004.65 1003.84 1003.41 1002.84 1001.36 1000.14 999.60 998.19 997.44 997.05 995.15 994.80 993.55 992.85 991.96 993.13 993.05 993.89 993.37
Wind_Speed
16 17 18 18 18 18 19 18 17 15 13 12 13 10 8 9 3 6 8 3 4 5 2 2 5 5 5 4 3 2 6 7 5 5 2 4 8 5 4 7 4 9 7 5 14
16 17 18 18 18 17 17 18 17 16 14 13 13 10 8 7 8 12 6 8 7 6 5 8 5 7 5 3 3 5 6 6 2 4 5 4 9 8 5 12 14 13 10 5 17
15 16 17 17 18 18 17 17 16 17 16 14 13 10 7 6 7 4 8 7 6 7 4 3 4 7 7 4 6 4 6 4 6 6 5 8 9 9 9 15 14 16 14 15 17
14 16 17 17 18 18 19 18 17 16 17 15 13 11 9 5 6 4 5 3 3 4 5 4 6 5 6 7 4 6 11 8 1 3 4 9 6 7 17 18 3 4 8 17 19
12 14 16 17 18 19 19 19 18 17 17 16 12 10 5 7 8 6 5 4 5 3 6 6 8 6 8 4 4 9 9 6 8 6 9 8 13 12 17 16 16 9 5 14 17
9 11 15 17 19 20 20 20 20 17 16 16 11 5 6 11 4 5 6 6 2 6 3 4 4 3 8 6 7 5 8 12 9 12 9 9 14 3 11 9 16 17 16 16 19
8 10 13 16 18 20 22 23 21 19 18 15 8 5 8 12 2 4 5 3 1 3 4 1 1 5 1 6 2 5 10 13 15 11 8 6 10 19 19 9 11 13 15 16 19
9 9 12 14 17 19 22 23 22 20 14 9 5 5 8 2 3 4 7 4 3 3 1 2 2 2 4 2 5 6 6 12 2 10 5 8 18 11 6 11 14 17 17 17 19
11 10 12 14 16 18 21 25 22 11 4 3 5 7 7 4 4 5 4 4 5 4 4 2 3 4 3 7 12 11 12 15 15 14 4 13 15 8 3 9 17 18 18 18 19
13 13 13 15 17 19 22 22 6 5 4 4 3 5 7 3 5 4 2 7 2 6 4 5 6 8 9 10 13 17 17 15 15 10 13 15 22 21 20 20 22 23 22 21 20
12 15 16 15 18 20 14 5 6 6 6 7 1 6 2 4 3 5 5 7 4 6 7 6 9 17 17 18 22 22 21 23 23 7 9 19 23 22 22 21 23 23 22 20 19
8 12 15 14 16 19 10 4 3 2 11 11 13 9 5 2 4 9 8 11 9 14 13 6 17 21 18 10 15 20 20 25 21 6 5 16 22 21 22 26 25 23 22 17 14
10 8 10 12 15 11 6 2 2 2 8 8 8 8 5 11 10 11 16 8 12 16 18 23 22 3 5 14 15 18 22 22 21 12 13 14 20 17 14 15 18 21 17 14 14
11 10 8 11 9 8 3 4 2 2 8 12 8 4 5 4 7 3 8 7 8 13 18 19 20 20 16 21 18 19 11 18 19 11 15 2 19 14 15 18 13 19 17 14 11
11 10 4 2 8 5 8 7 5 4 14 5 5 3 3 8 4 4 1 3 17 11 6 11 8 9 15 16 11 7 2 5 8 13 17 15 18 13 6 9 13 19 19 11 10
13 11 6 4 4 1 3 6 6 8 14 6 6 7 5 6 2 3 4 4 3 10 12 20 2 5 6 3 2 7 3 3 4 5 15 20 20 5 7 6 8 13 13 6 8
16 13 10 4 2 4 3 3 8 15 4 9 9 8 10 9 8 10 8 10 10 7 12 13 23 5 5 6 4 9 7 7 9 7 18 13 13 17 10 13 15 21 15 5 10
18 15 11 9 7 7 3 5 18 8 23 3 1 6 10 11 9 11 9 11 17 15 6 9 11 18 15 18 10 14 11 7 12 15 24 6 15 11 13 12 12 11 3 6 11
18 6 5 10 9 7 5 13 23 17 14 14 6 11 14 10 6 10 13 17 12 22 15 11 15 5 12 4 10 10 9 3 9 1 9 15 25 19 7 10 11 6 8 12 11
4 5 8 14 14 7 6 26 23 17 11 6 27 15 23 23 12 12 15 11 14 17 17 13 16 7 7 3 5 6 2 6 5 7 17 28 24 18 10 15 9 8 11 12 10
4 4 4 17 7 5 7 18 17 19 20 10 21 26 25 22 22 23 18 16 12 10 16 10 8 7 6 13 16 8 8 7 4 11 11 18 13 6 2 5 2 7 8 9 9
3 5 8 13 8 5 10 10 8 22 10 9 10 21 26 23 27 26 28 22 7 5 10 10 3 10 23 10 7 12 19 21 11 17 10 14 34 6 4 5 3 7 7 9 5
4 1 5 8 10 10 12 24 12 16 15 6 12 5 10 16 20 21 23 19 18 9 8 8 5 7 13 11 7 9 15 16 19 13 25 17 31 7 21 17 13 10 10 9 10
4 5 3 4 5 13 18 20 22 16 22 16 8 11 13 15 19 13 14 11 9 8 12 4 5 13 20 22 6 13 18 18 20 18 21 27 27 33 28 23 29 26 20 15 14
4 7 9 7 12 17 11 9 24 18 18 11 7 23 18 12 15 13 23 26 16 5 11 5 11 20 23 28 30 25 19 13 22 23 21 26 23 24 31 35 31 27 22 19 21
5 4 2 8 16 25 27 22 27 24 23 19 23 26 26 22 21 22 20 14 19 3 12 10 7 15 21 25 28 33 29 27 32 27 30 31 30 34 36 38 35 32 33 21 27
2 2 2 4 4 11 19 27 29 28 27 29 29 25 24 27 32 32 25 19 11 11 13 9 8 8 18 23 26 23 35 36 37 39 31 30 39 36 37 36 36 27 27 20 24
Wind_Direction
18 13 11 9 6 3 360 359 357 357 353 349 349 337 329 321 311 205 243 123 131 136 212 173 219 208 210 203 232 256 254 265 280 263 13 137 215 165 3 249 204 195 266 70 141
15 11 6 3 1 359 356 351 347 344 346 344 343 336 326 320 267 256 131 138 141 168 203 205 205 188 218 220 213 246 262 297 342 281 269 203 235 229 219 215 229 233 219 160 158
7 5 2 359 355 351 349 346 339 336 335 338 338 332 320 297 272 242 128 146 159 188 234 239 249 205 238 232 191 186 253 358 267 257 267 260 241 217 229 249 234 237 221 184 187
2 358 354 351 349 346 342 339 334 329 326 328 334 327 320 234 265 86 106 108 162 198 193 196 206 217 246 224 190 258 243 249 295 225 245 244 272 237 230 240 101 319 284 171 197
359 354 349 345 342 339 337 334 331 325 320 319 325 319 276 236 255 121 120 128 163 185 239 235 241 262 255 244 225 245 276 244 245 225 240 257 248 255 260 250 257 217 223 199 206
349 351 346 341 338 334 330 328 325 319 312 310 306 302 247 253 98 127 128 144 218 223 219 238 300 302 292 261 234 359 279 266 257 249 242 234 257 255 252 255 242 235 223 224 216
338 343 340 337 336 332 327 322 319 315 306 299 276 233 244 257 64 129 147 131 139 259 233 199 274 244 6 256 284 284 281 272 246 241 242 206 249 233 250 217 223 229 234 228 224
329 340 332 330 330 328 323 316 312 309 303 285 217 221 264 89 127 159 160 120 111 91 85 130 227 254 245 34 236 259 254 270 199 178 182 201 266 247 235 193 232 244 236 231 229
321 328 325 328 327 323 319 310 305 295 263 195 210 239 259 136 190 158 210 190 128 106 82 128 236 269 194 241 266 205 267 267 261 191 157 212 267 286 191 237 262 259 256 239 230
314 319 322 326 325 324 321 299 286 275 213 215 261 234 176 195 138 153 129 169 162 146 161 204 225 243 221 232 258 290 287 268 260 192 218 233 249 271 276 271 270 267 261 257 249
303 313 319 321 322 324 331 327 240 207 205 237 299 274 157 90 160 183 162 166 176 220 224 189 230 239 254 245 249 274 284 276 272 272 220 245 260 269 274 277 272 274 272 263 251
273 303 313 308 311 316 288 280 66 5 292 242 252 262 226 190 230 191 175 187 191 225 218 213 239 254 278 287 271 264 265 267 273 289 214 271 270 268 267 268 274 274 270 272 262
267 279 292 309 313 296 314 10 350 275 249 231 226 243 232 183 234 216 183 204 220 236 227 241 254 111 266 260 252 246 250 260 272 297 228 273 272 257 246 257 261 268 263 264 251
250 267 290 319 285 349 286 353 315 294 262 226 201 182 164 195 251 121 208 218 207 248 242 253 264 260 254 255 252 261 262 252 268 279 273 83 287 279 285 263 245 268 270 260 213
243 257 242 35 314 311 353 323 293 246 274 99 158 80 149 222 54 165 120 185 239 211 190 235 225 220 233 243 237 240 347 250 257 257 279 259 269 276 170 262 232 248 266 268 178
228 234 162 190 234 259 337 311 275 235 249 191 160 180 173 200 196 97 183 228 336 244 235 258 91 243 235 107 246 122 217 217 227 267 255 258 244 280 214 212 235 251 242 267 184
217 207 179 199 302 124 122 233 248 235 111 192 213 192 206 192 201 191 180 188 189 185 216 224 227 189 188 206 166 206 213 270 251 221 263 280 259 255 272 245 253 263 268 182 172
216 199 202 217 158 147 197 200 243 236 228 56 153 203 218 189 223 201 195 231 224 241 286 249 241 191 195 221 251 198 215 220 266 265 282 111 260 262 233 231 246 252 222 196 189
221 212 198 194 171 173 213 217 239 228 251 256 229 252 223 228 254 199 223 236 224 196 214 220 248 124 179 181 188 162 201 262 276 210 279 263 266 260 161 202 230 226 224 226 205
236 228 212 176 156 175 178 244 247 218 270 263 239 226 249 234 204 205 232 230 231 197 224 258 259 195 123 191 219 241 79 186 199 257 258 278 277 277 238 228 210 232 237 250 215
244 246 173 145 129 187 205 231 262 261 258 234 255 256 257 252 249 231 240 257 217 201 207 235 231 227 141 200 214 185 222 220 301 239 252 271 265 54 8 150 269 223 243 242 216
214 227 150 147 181 186 224 216 231 265 273 273 272 262 266 263 257 250 250 251 193 161 198 216 266 232 235 246 261 257 231 218 216 227 235 254 272 147 137 107 187 236 216 264 247
244 219 187 189 202 214 237 240 243 254 242 220 242 256 317 295 294 278 270 278 272 194 208 175 207 236 259 241 167 211 228 241 237 249 243 242 256 224 274 284 277 245 228 215 218
265 239 176 234 257 224 221 227 239 237 250 241 199 281 267 257 253 268 281 297 19 5 8 334 190 224 237 246 262 214 225 223 227 234 246 244 264 281 282 279 274 272 266 249 236
242 244 185 194 231 237 221 218 240 240 224 205 225 207 217 240 245 237 243 257 250 204 287 305 251 251 254 266 274 275 267 226 229 240 246 264 263 266 277 272 272 278 275 283 274
294 299 266 292 216 213 224 226 235 237 235 228 228 223 217 224 216 247 233 226 241 193 232 215 251 244 246 251 262 266 265 267 264 262 259 254 260 259 259 269 274 269 276 275 274
6 3 9 290 277 255 229 226 231 237 239 236 250 241 233 222 225 234 242 255 206 191 190 191 205 210 242 237 240 247 240 243 248 251 250 249 247 259 264 260 258 276 275 272 274